• Join FlightAware (Why Join?)
  • Login
  • US Flag 
11:09PM EDT


 

Airport Tracker/Info


-or-


 

Live Flight TrackerFlight Track Log ✈ THY9 ✈ 02-May-2013 ✈ LTBA / IST - KLAX

Flight Track Log - Related Links

Times and Time Zones

All times are in EDT time to prevent confusion due to time zone crossing. See the THY9 flight status page for this flight to view local times or setup timezone preferences in your user account.

Time Position Orientation Groundspeed Altitude Reporting Facility
EDT Latitude Longitude Course Direction KTS MPH feet Rate Location/Type
05:59AM 41.0610 28.7850 331° Northwest 219 252 2,000  Level FlightAware
05:59AM 41.0720 28.7750 326° Northwest 228 262 2,900 3,120 Climbing FlightAware
06:00AM 41.1030 28.7470 326° Northwest 271 312 4,100 2,280 Climbing FlightAware
06:00AM 41.1230 28.7310 329° Northwest 271 312 4,800 2,400 Climbing FlightAware
06:00AM 41.1500 28.7080 327° Northwest 275 316 5,900 2,760 Climbing FlightAware
06:01AM 41.1730 28.6880 327° Northwest 286 329 6,900 1,380 Climbing FlightAware
06:01AM 41.2080 28.6590 328° Northwest 288 331 7,200 2,460 Climbing FlightAware
06:02AM 41.2490 28.6250 328° Northwest 294 338 9,600 3,600 Climbing FlightAware
06:02AM 41.2870 28.5930 328° Northwest 305 351 10,800 1,800 Climbing FlightAware
06:03AM 41.3470 28.5430 328° Northwest 346 398 11,900 1,320 Climbing FlightAware
06:04AM 41.4200 28.4820 328° Northwest 388 447 12,900 1,620 Climbing FlightAware
06:05AM 41.5070 28.4080 328° Northwest 406 467 14,800 2,220 Climbing FlightAware
06:05AM 41.5630 28.3600 327° Northwest 417 480 16,300 2,580 Climbing FlightAware
06:06AM 41.6370 28.2970 328° Northwest 417 480 18,300 2,160 Climbing FlightAware
06:07AM 41.7180 28.2280 328° Northwest 429 494 19,800 1,800 Climbing FlightAware
06:08AM 41.7830 28.1730 328° Northwest 428 493 21,000 1,800 Climbing FlightAware
06:08AM 41.8530 28.1120 327° Northwest 440 506 22,200 1,740 Climbing FlightAware
06:09AM 41.9290 28.0470 328° Northwest 446 513 23,500 1,800 Climbing FlightAware
06:10AM 41.9880 28.0030 331° Northwest 456 525 24,500 1,740 Climbing FlightAware
06:11AM 42.1470 27.9170 338° Northwest 456 525 26,700 1,380 Climbing FlightAware
06:13AM 42.3509 27.8473 346° North  Level FlightAware Approximate
06:13AM 42.3420 27.8040 346° North 471 542 28,700  Level FlightAware
06:14AM 42.4790 27.7300 338° Northwest 489 563 30,000 1,380 Climbing FlightAware
06:15AM 42.6340 27.6450 338° Northwest 478 550 32,000 1,140 Climbing FlightAware
06:15AM 42.6940 27.6110 337° Northwest 477 549 32,000  Level FlightAware
06:16AM 42.8160 27.5440 338° Northwest 483 556 32,000  Level FlightAware
06:17AM 42.8990 27.4980 338° Northwest 483 556 32,000  Level FlightAware
06:18AM 42.9810 27.4520 338° Northwest 482 555 32,000  Level FlightAware
06:18AM 43.0740 27.4000 338° Northwest 482 555 32,000  Level FlightAware
06:19AM 43.1550 27.3550 338° Northwest 481 554 32,000  Level FlightAware
06:20AM 43.2370 27.3090 338° Northwest 482 555 32,000  Level FlightAware
06:20AM 43.3200 27.2620 338° Northwest 481 554 32,000  Level FlightAware
06:21AM 43.4130 27.2100 338° Northwest 481 554 32,000  Level FlightAware
06:22AM 43.4950 27.1640 338° Northwest 481 554 32,000  Level FlightAware
06:23AM 43.5870 27.1110 337° Northwest 479 551 32,000  Level FlightAware
06:23AM 43.6680 27.0650 338° Northwest 479 551 32,000  Level FlightAware
06:24AM 43.7590 27.0130 338° Northwest 480 552 32,000  Level FlightAware
06:25AM 43.8430 26.9650 338° Northwest 482 555 32,000  Level FlightAware
06:25AM 43.9360 26.9110 337° Northwest 482 555 32,000  Level FlightAware
06:26AM 44.0180 26.8650 338° Northwest 482 555 32,000  Level FlightAware
06:27AM 44.1140 26.8310 346° North 483 556 32,000  Level FlightAware
06:27AM 44.1980 26.8130 351° North 482 555 32,000  Level FlightAware
06:28AM 44.2630 26.8000 352° North 483 556 32,000  Level FlightAware
06:29AM 44.3790 26.7760 352° North 481 554 32,000  Level FlightAware
06:29AM 44.4530 26.7600 351° North 481 554 32,000  Level FlightAware
06:30AM 44.5700 26.7360 352° North 481 554 32,000  Level FlightAware
06:31AM 44.6420 26.7200 351° North 480 552 32,000  Level FlightAware
06:32AM 44.7330 26.7010 352° North 478 550 32,000  Level FlightAware
06:32AM 44.8400 26.6770 351° North 474 545 32,000  Level FlightAware
06:33AM 44.9070 26.6630 352° North 473 544 32,000  Level FlightAware
06:34AM 45.0180 26.6380 351° North 472 543 32,000  Level FlightAware
06:34AM 45.1140 26.6170 351° North 471 542 32,000  Level FlightAware
06:35AM 45.1980 26.5990 351° North 469 540 32,000  Level FlightAware
06:36AM 45.2970 26.5770 351° North 468 539 32,000  Level FlightAware
06:37AM 45.3720 26.5600 351° North 468 539 32,000  Level FlightAware
06:37AM 45.4730 26.5380 351° North 469 540 32,000  Level FlightAware
06:38AM 45.5610 26.5180 351° North 469 540 32,000  Level FlightAware
06:39AM 45.6500 26.4980 351° North 469 540 32,000  Level FlightAware
06:39AM 45.7220 26.4820 351° North 469 540 32,000  Level FlightAware
06:40AM 45.8110 26.4620 351° North 471 542 32,000  Level FlightAware
06:41AM 45.9300 26.4350 351° North 473 544 32,000  Level FlightAware
06:41AM 45.9940 26.4200 351° North 473 544 32,000  Level FlightAware
06:42AM 46.0980 26.3970 351° North 472 543 32,000  Level FlightAware
06:43AM 46.1930 26.3750 351° North 472 543 32,000  Level FlightAware
06:44AM 46.3170 26.3470 351° North 470 541 32,000  Level FlightAware
06:44AM 46.4020 26.3270 351° North 468 539 32,000  Level FlightAware
06:45AM 46.4770 26.3100 351° North 467 537 32,000  Level FlightAware
06:46AM 46.5940 26.2820 351° North 468 539 32,000  Level FlightAware
06:47AM 46.6880 26.2600 351° North 469 540 32,000  Level FlightAware
06:47AM 46.7740 26.2400 351° North 465 535 32,000  Level FlightAware
06:48AM 46.8500 26.2230 351° North 465 535 32,000  Level FlightAware
06:49AM 46.9450 26.2000 351° North 467 537 32,000  Level FlightAware
06:49AM 47.0280 26.1810 351° North 467 537 32,000  Level FlightAware
06:50AM 47.1180 26.1590 351° North 467 537 32,000  Level FlightAware
06:51AM 47.2550 26.1270 351° North 465 535 32,000  Level FlightAware
06:52AM 47.3400 26.1060 350° North 465 535 32,000  Level FlightAware
06:52AM 47.4250 26.0860 351° North 467 537 32,000  Level FlightAware
06:53AM 47.5210 26.0630 351° North 467 537 32,000  Level FlightAware
06:54AM 47.6060 26.0420 351° North 467 537 32,000  Level FlightAware
06:55AM 47.6990 26.0200 351° North 467 537 32,000  Level FlightAware
06:55AM 47.7480 26.0080 351° North 466 536 32,000  Level FlightAware
06:56AM 47.8830 25.9750 351° North 466 536 32,000  Level FlightAware
06:57AM 47.9690 25.9540 351° North 466 536 32,000  Level FlightAware
06:57AM 48.0510 25.9300 349° North 464 534 32,000  Level FlightAware
06:58AM 48.1780 25.8910 348° North 463 533 32,000  Level FlightAware
06:59AM 48.2580 25.8670 349° North 463 533 32,000  Level FlightAware
07:00AM 48.3460 25.8410 349° North 464 534 32,000  Level FlightAware
07:00AM 48.4380 25.8130 349° North 464 534 32,000  Level FlightAware
07:01AM 48.5230 25.7880 349° North 463 533 32,000  Level FlightAware
07:02AM 48.6060 25.7630 349° North 459 528 32,000  Level FlightAware
07:02AM 48.7020 25.7340 349° North 461 531 32,000  Level FlightAware
07:03AM 48.7850 25.7080 348° North 462 532 32,000  Level FlightAware
07:04AM 48.8780 25.6800 349° North 462 532 32,000  Level FlightAware
07:04AM 48.9500 25.6580 349° North 463 533 32,000  Level FlightAware
07:05AM 49.0480 25.6280 349° North 463 533 32,000  Level FlightAware
07:06AM 49.1400 25.5990 348° North 464 534 32,000  Level FlightAware
07:07AM 49.2230 25.5730 348° North 467 537 32,000  Level FlightAware
07:07AM 49.3180 25.5440 349° North 467 537 32,000  Level FlightAware
07:08AM 49.3930 25.5200 348° North 466 536 32,000  Level FlightAware
07:09AM 49.4900 25.4900 349° North 465 535 32,000  Level FlightAware
07:09AM 49.5830 25.4610 349° North 467 537 32,000  Level FlightAware
07:10AM 49.6680 25.4340 348° North 470 541 32,000  Level FlightAware
07:11AM 49.7410 25.4100 348° North 473 544 32,000  Level FlightAware
07:12AM 49.8500 25.3760 349° North 472 543 32,000 180 Level FlightAware
07:12AM 49.9410 25.3470 348° North 474 545 32,300 900 Climbing FlightAware
07:13AM 50.0190 25.3220 348° North 468 539 33,200 1,260 Climbing FlightAware
07:14AM 50.1140 25.2910 348° North 466 536 34,000 600 Climbing FlightAware
07:14AM 50.1860 25.2680 348° North 462 532 34,000  Level FlightAware
07:15AM 50.2920 25.2330 348° North 465 535 34,000  Level FlightAware
07:16AM 50.3670 25.2090 348° North 465 535 34,000  Level FlightAware
07:16AM 50.4630 25.1770 348° North 468 539 34,000  Level FlightAware
07:17AM 50.5560 25.1470 348° North 472 543 34,000  Level FlightAware
07:18AM 50.6440 25.1180 348° North 473 544 34,000  Level FlightAware
07:19AM 50.7340 25.0880 348° North 469 540 34,000  Level FlightAware
07:19AM 50.8040 25.0650 348° North 469 540 34,000  Level FlightAware
07:20AM 50.8960 25.0340 348° North 468 539 34,000  Level FlightAware
07:21AM 50.9930 25.0010 348° North 467 537 34,000  Level FlightAware
07:21AM 51.0950 24.9670 348° North 466 536 34,000  Level FlightAware
07:22AM 51.1950 24.9330 348° North 465 535 34,000  Level FlightAware
07:23AM 51.2950 24.8980 348° North 465 535 34,000  Level FlightAware
07:24AM 51.3740 24.8700 348° North 466 536 34,000  Level FlightAware
07:25AM 51.4990 24.8290 348° North 468 539 34,000  Level FlightAware
07:25AM 51.5840 24.7990 348° North 468 539 34,000  Level FlightAware
07:27AM 51.7520 24.7400 348° North 468 539 34,000  Level FlightAware
07:28AM 51.8750 24.6960 348° North 468 539 34,000  Level FlightAware
07:29AM 52.0070 24.6510 348° North 470 541 34,000  Level FlightAware
07:29AM 52.1000 24.6180 348° North 471 542 34,000  Level FlightAware
07:30AM 52.1780 24.5890 347° North 472 543 34,000  Level FlightAware
07:31AM 52.2650 24.5590 348° North 471 542 34,000  Level FlightAware
07:31AM 52.3640 24.5240 348° North 469 540 34,000  Level FlightAware
07:32AM 52.4520 24.4920 348° North 468 539 34,000  Level FlightAware
07:33AM 52.5240 24.4660 348° North 462 532 34,000  Level FlightAware
07:33AM 52.6320 24.4280 348° North 460 529 34,000  Level FlightAware
07:34AM 52.7150 24.3980 348° North 458 527 34,000  Level FlightAware
07:35AM 52.8030 24.3660 348° North 458 527 34,000  Level FlightAware
07:36AM 52.9500 24.3120 348° North 458 527 34,000  Level FlightAware
07:37AM 53.0270 24.2840 348° North 458 527 34,000  Level FlightAware
07:37AM 53.1270 24.2460 347° North 460 529 34,000  Level FlightAware
07:38AM 53.2110 24.2130 347° North 461 531 34,000  Level FlightAware
07:39AM 53.2900 24.1810 346° North 462 532 34,000  Level FlightAware
07:39AM 53.3720 24.1490 347° North 463 533 34,000  Level FlightAware
07:40AM 53.4690 24.1110 347° North 462 532 34,000  Level FlightAware
07:41AM 53.5440 24.0810 347° North 462 532 34,000  Level FlightAware
07:42AM 53.6470 24.0390 346° North 459 528 34,000  Level FlightAware
07:42AM 53.7280 24.0010 344° North 458 527 34,000  Level FlightAware
07:43AM 53.8090 23.9630 345° North 458 527 34,000  Level FlightAware
07:44AM 53.8980 23.9220 345° North 462 532 34,000  Level FlightAware
07:44AM 53.9800 23.8740 341° North 456 525 34,000  Level FlightAware
07:45AM 54.0670 23.8120 337° Northwest 450 518 34,000  Level FlightAware
07:46AM 54.1460 23.7540 337° Northwest 450 518 34,000  Level FlightAware
07:47AM 54.2300 23.6910 336° Northwest 452 520 34,000  Level FlightAware
07:47AM 54.3060 23.6350 337° Northwest 452 520 34,000  Level FlightAware
07:48AM 54.3790 23.5800 336° Northwest 450 518 34,000  Level FlightAware
07:49AM 54.4700 23.5120 337° Northwest 450 518 34,000  Level FlightAware
07:49AM 54.5540 23.4480 336° Northwest 450 518 34,000  Level FlightAware
07:50AM 54.6290 23.3920 337° Northwest 450 518 34,000  Level FlightAware
07:51AM 54.7110 23.3300 336° Northwest 448 516 34,000  Level FlightAware
07:51AM 54.7860 23.2720 336° Northwest 448 516 34,000  Level FlightAware
07:52AM 54.8680 23.2100 336° Northwest 448 516 34,000  Level FlightAware
07:53AM 54.9520 23.1460 336° Northwest 450 518 34,000  Level FlightAware
07:54AM 55.0280 23.0890 337° Northwest 450 518 34,000  Level FlightAware
07:54AM 55.1130 23.0240 336° Northwest 448 516 34,000  Level FlightAware
07:55AM 55.1910 22.9650 337° Northwest 447 514 34,000  Level FlightAware
07:56AM 55.2670 22.9070 337° Northwest 446 513 34,000  Level FlightAware
07:56AM 55.3510 22.8420 336° Northwest 447 514 34,000  Level FlightAware
07:57AM 55.4260 22.7850 337° Northwest 449 517 34,000  Level FlightAware
07:58AM 55.5060 22.7330 340° North 453 521 34,000  Level FlightAware
07:58AM 55.5920 22.6800 341° North 453 521 34,000  Level FlightAware
07:59AM 55.6720 22.6320 341° North 456 525 34,000  Level FlightAware
08:00AM 55.7510 22.5830 341° North 457 526 34,000  Level FlightAware
08:01AM 55.8400 22.5280 341° North 457 526 34,000  Level FlightAware
08:01AM 55.9230 22.4770 341° North 455 524 34,000  Level FlightAware
08:02AM 56.0120 22.4210 341° North 454 522 34,000  Level FlightAware
08:03AM 56.0920 22.3710 341° North 454 522 34,000  Level FlightAware
08:03AM 56.1680 22.3240 341° North 455 524 34,000  Level FlightAware
08:04AM 56.2490 22.2720 340° North 455 524 34,000  Level FlightAware
08:05AM 56.3170 22.2290 341° North 457 526 34,000  Level FlightAware
08:05AM 56.4010 22.1750 340° North 457 526 34,000  Level FlightAware
08:06AM 56.4940 22.1050 337° Northwest 454 522 34,000  Level FlightAware
08:07AM 56.5820 22.0340 336° Northwest 458 527 34,000  Level FlightAware
08:07AM 56.6600 21.9720 336° Northwest 460 529 34,000  Level FlightAware
08:08AM 56.7470 21.9010 336° Northwest 459 528 34,000  Level FlightAware
08:09AM 56.8260 21.8380 336° Northwest 461 531 34,000  Level FlightAware
08:10AM 56.9030 21.7740 336° Northwest 462 532 34,000  Level FlightAware
08:10AM 56.9890 21.7040 336° Northwest 462 532 34,000  Level FlightAware
08:11AM 57.0660 21.6370 335° Northwest 458 527 34,000  Level FlightAware
08:12AM 57.1510 21.5610 334° Northwest 459 528 34,000  Level FlightAware
08:12AM 57.2290 21.4910 334° Northwest 457 526 34,000  Level FlightAware
08:13AM 57.3000 21.4290 335° Northwest 454 522 34,000  Level FlightAware
08:14AM 57.3760 21.3610 334° Northwest 454 522 34,000  Level FlightAware
08:14AM 57.4650 21.2800 334° Northwest 454 522 34,000  Level FlightAware
08:15AM 57.5480 21.2060 334° Northwest 456 525 34,000  Level FlightAware
08:16AM 57.6240 21.1370 334° Northwest 456 525 34,000  Level FlightAware
08:17AM 57.7000 21.0670 334° Northwest 453 521 34,000  Level FlightAware
08:17AM 57.7870 20.9870 334° Northwest 454 522 34,000  Level FlightAware
08:18AM 57.8610 20.9190 334° Northwest 454 522 34,000  Level FlightAware
08:19AM 57.9370 20.8490 334° Northwest 453 521 34,000  Level FlightAware
08:19AM 58.0200 20.7720 334° Northwest 454 522 34,000  Level FlightAware
08:20AM 58.0950 20.7010 333° Northwest 453 521 34,000  Level FlightAware
08:21AM 58.1800 20.6210 334° Northwest 450 518 34,000  Level FlightAware
08:21AM 58.2530 20.5520 334° Northwest 450 518 34,000  Level FlightAware
08:22AM 58.3290 20.4800 334° Northwest 451 519 34,000  Level FlightAware
08:23AM 58.4100 20.4030 334° Northwest 452 520 34,000  Level FlightAware
08:24AM 58.4850 20.3300 333° Northwest 450 518 34,000  Level FlightAware
08:24AM 58.5710 20.2480 334° Northwest 449 517 34,000  Level FlightAware
08:25AM 58.6430 20.1780 333° Northwest 448 516 34,000  Level FlightAware
08:26AM 58.7250 20.0980 333° Northwest 445 512 34,000  Level FlightAware
08:26AM 58.7980 20.0260 333° Northwest 447 514 34,000  Level FlightAware
08:27AM 58.8730 19.9530 333° Northwest 449 517 34,000  Level FlightAware
08:28AM 58.9570 19.8700 333° Northwest 447 514 34,000  Level FlightAware
08:28AM 59.0310 19.7960 333° Northwest 449 517 34,000  Level FlightAware
08:29AM 59.1120 19.7160 333° Northwest 451 519 34,000  Level FlightAware
08:30AM 59.1870 19.6400 333° Northwest 453 521 34,000  Level FlightAware
08:31AM 59.2620 19.5640 333° Northwest 453 521 34,000  Level FlightAware
08:31AM 59.3450 19.4810 333° Northwest 453 521 34,000  Level FlightAware
08:32AM 59.4180 19.4050 332° Northwest 452 520 34,000  Level FlightAware
08:33AM 59.4920 19.3290 332° Northwest 450 518 34,000  Level FlightAware
08:33AM 59.5760 19.2430 333° Northwest 452 520 34,000  Level FlightAware
08:34AM 59.6520 19.1640 332° Northwest 451 519 34,000  Level FlightAware
08:35AM 59.7310 19.0820 332° Northwest 447 514 34,000  Level FlightAware
08:35AM 59.8040 19.0060 332° Northwest 444 511 34,000  Level FlightAware
08:36AM 59.8770 18.9290 332° Northwest 440 506 34,000  Level FlightAware
08:37AM 59.9570 18.8440 332° Northwest 441 507 34,000  Level FlightAware
08:38AM 60.0300 18.7670 332° Northwest 443 510 34,000  Level FlightAware
08:38AM 60.1100 18.6820 332° Northwest 444 511 34,000  Level FlightAware
08:39AM 60.1830 18.6030 332° Northwest 445 512 34,000  Level FlightAware
08:40AM 60.2560 18.5240 332° Northwest 451 519 34,000  Level FlightAware
08:40AM 60.3390 18.4330 332° Northwest 456 525 34,000  Level FlightAware
08:41AM 60.4150 18.3510 332° Northwest 460 529 34,000  Level FlightAware
08:42AM 60.5010 18.2770 337° Northwest 466 536 34,000  Level FlightAware
08:42AM 60.5800 18.2120 338° Northwest 462 532 34,000  Level FlightAware
08:43AM 60.6590 18.1440 337° Northwest 460 529 34,000  Level FlightAware
08:44AM 60.7500 18.0670 338° Northwest 466 536 34,000  Level FlightAware
08:45AM 60.8370 17.9960 338° Northwest 460 529 34,000  Level FlightAware
08:45AM 60.9160 17.9290 338° Northwest 463 533 34,000  Level FlightAware
08:46AM 60.9950 17.8630 338° Northwest 466 536 34,000  Level FlightAware
08:47AM 61.0880 17.7850 338° Northwest 466 536 34,000  Level FlightAware
08:47AM 61.1630 17.7210 338° Northwest 475 547 34,000  Level FlightAware
08:48AM 61.2510 17.6470 338° Northwest 478 550 34,000  Level FlightAware
08:49AM 61.3400 17.5700 337° Northwest 475 547 34,000  Level FlightAware
08:49AM 61.4200 17.5020 338° Northwest 474 545 34,000  Level FlightAware
08:50AM 61.4970 17.4340 337° Northwest 471 542 34,000  Level FlightAware
08:51AM 61.5920 17.3510 337° Northwest 470 541 34,000  Level FlightAware
08:52AM 61.6720 17.2810 337° Northwest 470 541 34,000  Level FlightAware
08:52AM 61.7330 17.2280 338° Northwest 471 542 34,000  Level FlightAware
08:53AM 61.8130 17.1560 337° Northwest 471 542 34,000  Level FlightAware
08:53AM 61.8930 17.0850 337° Northwest 474 545 34,000  Level FlightAware
08:54AM 61.9850 17.0030 337° Northwest 470 541 34,000  Level FlightAware
08:55AM 62.0660 16.9300 337° Northwest 470 541 34,000  Level FlightAware
08:56AM 62.1480 16.8560 337° Northwest 473 544 34,000  Level FlightAware
08:56AM 62.2400 16.7720 337° Northwest 475 547 34,000  Level FlightAware
08:57AM 62.3220 16.6970 337° Northwest 472 543 34,000  Level FlightAware
08:58AM 62.4130 16.6120 337° Northwest 471 542 34,000  Level FlightAware
08:58AM 62.4930 16.5380 337° Northwest 474 545 34,000  Level FlightAware
08:59AM 62.5650 16.4710 337° Northwest 476 548 34,000  Level FlightAware
09:00AM 62.6640 16.3770 336° Northwest 474 545 34,000  Level FlightAware
09:01AM 62.7730 16.2740 337° Northwest 473 544 34,000  Level FlightAware
09:01AM 62.8540 16.1970 337° Northwest 475 547 34,000  Level FlightAware
09:02AM 62.9440 16.1100 336° Northwest 474 545 34,000  Level FlightAware
09:03AM 63.0230 16.0330 336° Northwest 472 543 34,000  Level FlightAware
09:04AM 63.1130 15.9460 336° Northwest 473 544 34,000  Level FlightAware
09:04AM 63.1940 15.8670 336° Northwest 475 547 34,000  Level FlightAware
09:05AM 63.2740 15.7880 336° Northwest 477 549 34,000  Level FlightAware
09:06AM 63.3640 15.6980 336° Northwest 474 545 34,000  Level FlightAware
09:06AM 63.4470 15.6150 336° Northwest 476 548 34,000  Level FlightAware
09:07AM 63.5390 15.5230 336° Northwest 479 551 34,000  Level FlightAware
09:08AM 63.6190 15.4420 336° Northwest 477 549 34,000  Level FlightAware
09:08AM 63.6990 15.3600 336° Northwest 479 551 34,000  Level FlightAware
09:09AM 63.7910 15.2660 336° Northwest 479 551 34,000  Level FlightAware
09:10AM 63.8710 15.1830 335° Northwest 478 550 34,000  Level FlightAware
09:11AM 63.9610 15.0900 336° Northwest 476 548 34,000  Level FlightAware
09:11AM 64.0410 15.0060 335° Northwest 474 545 34,000  Level FlightAware
09:12AM 64.1250 14.9180 335° Northwest 475 547 34,000  Level FlightAware
09:13AM 64.2140 14.8230 335° Northwest 466 536 34,000  Level FlightAware
09:13AM 64.2940 14.7380 335° Northwest 476 548 34,000  Level FlightAware
09:14AM 64.3730 14.6520 335° Northwest 477 549 34,000  Level FlightAware
09:15AM 64.4610 14.5580 335° Northwest 477 549 34,000  Level FlightAware
09:15AM 64.5430 14.4680 335° Northwest 476 548 34,000  Level FlightAware
09:16AM 64.6270 14.3760 335° Northwest 476 548 34,000  Level FlightAware
09:17AM 64.7130 14.2820 335° Northwest 477 549 34,000  Level FlightAware
09:18AM 64.7980 14.1870 335° Northwest 477 549 34,000  Level FlightAware
09:18AM 64.8810 14.0930 334° Northwest 483 556 34,000  Level FlightAware
09:19AM 64.9620 14.0020 335° Northwest 482 555 34,000  Level FlightAware
09:20AM 65.0520 13.9010 335° Northwest 479 551 34,000  Level FlightAware
09:20AM 65.1280 13.8140 334° Northwest 480 552 34,000  Level FlightAware
09:21AM 65.2150 13.7130 334° Northwest 481 554 34,000  Level FlightAware
09:22AM 65.3000 13.6140 334° Northwest 479 551 34,000  Level FlightAware
09:22AM 65.3750 13.5280 334° Northwest 480 552 34,000  Level FlightAware
09:23AM 65.4710 13.4150 334° Northwest 471 542 34,000  Level FlightAware
09:25AM 65.6510 13.1980 334° Northwest 471 542 34,000  Level FlightAware
09:26AM 65.7750 13.0490 334° Northwest 473 544 34,000  Level FlightAware
09:27AM 65.9010 12.8960 334° Northwest 473 544 34,000  Level FlightAware
09:28AM 65.9940 12.7820 334° Northwest 487 560 34,000  Level FlightAware
09:28AM 66.0680 12.6900 333° Northwest 486 559 34,000  Level FlightAware
09:29AM 66.1370 12.6050 334° Northwest 486 559 34,000  Level FlightAware
09:31AM 66.3500 12.3350 333° Northwest 474 545 34,000  Level FlightAware
09:32AM 66.5740 12.0440 319° Northwest 475 547 34,000  Level FlightAware
09:33AM 66.5322 11.9345 319° Northwest  Level Estimated
09:33AM 66.6800 11.9080 333° Northwest 471 542 34,000  Level FlightAware
09:34AM 66.7500 11.8160 333° Northwest 470 541 34,000  Level FlightAware
09:35AM 66.8430 11.6910 332° Northwest 472 543 34,000  Level FlightAware
09:35AM 66.9280 11.5780 332° Northwest 471 542 34,000  Level FlightAware
09:36AM 67.0150 11.4610 332° Northwest 474 545 34,000  Level FlightAware
09:37AM 67.0910 11.3570 332° Northwest 475 547 34,000  Level FlightAware
09:38AM 67.1690 11.2490 332° Northwest 473 544 34,000  Level FlightAware
09:38AM 67.2510 11.1340 332° Northwest 473 544 34,000  Level FlightAware
09:39AM 67.3160 11.0410 331° Northwest 473 544 34,000  Level FlightAware
09:40AM 67.3810 10.9470 331° Northwest 473 544 34,000  Level FlightAware
09:40AM 67.4460 10.8530 331° Northwest 473 544 34,000  Level FlightAware
09:41AM 67.5110 10.7590 331° Northwest 473 544 34,000  Level FlightAware
09:42AM 67.5930 10.6410 331° Northwest 473 544 34,000  Level FlightAware
09:42AM 67.6580 10.5460 331° Northwest 473 544 34,000  Level FlightAware
09:43AM 67.7230 10.4510 331° Northwest 473 544 34,000  Level FlightAware
09:44AM 67.7880 10.3550 331° Northwest 473 544 34,000  Level FlightAware
09:44AM 67.8530 10.2600 331° Northwest 473 544 34,000  Level FlightAware
09:45AM 67.9340 10.1400 331° Northwest 473 544 34,000  Level FlightAware
09:46AM 68.0000 10.0440 331° Northwest 473 544 34,000  Level FlightAware
09:47AM 68.0650 9.9470 331° Northwest 473 544 34,000  Level FlightAware
09:47AM 68.1300 9.8510 331° Northwest 473 544 34,000  Level FlightAware
09:50AM 68.3360 9.3180 316° Northwest  Level Estimated
09:51AM 68.4283 9.0744 316° Northwest  Level Estimated
09:52AM 68.5203 8.8287 316° Northwest  Level Estimated
09:53AM 68.6120 8.5811 315° West  Level Estimated
09:54AM 68.7032 8.3315 315° West  Level Estimated
09:55AM 68.7942 8.0798 315° West  Level Estimated
09:56AM 68.8847 7.8260 315° West  Level Estimated
09:57AM 68.9748 7.5702 315° West  Level Estimated
09:58AM 69.0646 7.3123 314° West  Level Estimated
09:59AM 69.1540 7.0522 314° West  Level Estimated
10:00AM 69.2429 6.7900 314° West  Level Estimated
10:01AM 69.3315 6.5257 314° West  Level Estimated
10:02AM 69.4197 6.2592 313° West  Level Estimated
10:03AM 69.5074 5.9905 313° West  Level Estimated
10:04AM 69.5948 5.7196 313° West  Level Estimated
10:05AM 69.6817 5.4464 313° West  Level Estimated
10:06AM 69.7682 5.1711 312° West  Level Estimated
10:07AM 69.8542 4.8934 312° West  Level Estimated
10:08AM 69.9399 4.6135 312° West  Level Estimated
10:09AM 70.0250 4.3313 312° West  Level Estimated
10:10AM 70.1097 4.0468 311° West  Level Estimated
10:11AM 70.1940 3.7600 311° West  Level Estimated
10:12AM 70.2778 3.4708 311° West  Level Estimated
10:13AM 70.3612 3.1793 310° West  Level Estimated
10:14AM 70.4440 2.8853 310° West  Level Estimated
10:15AM 70.5264 2.5890 310° West  Level Estimated
10:16AM 70.6083 2.2903 310° West  Level Estimated
10:17AM 70.6897 1.9891 309° West  Level Estimated
10:18AM 70.7707 1.6855 309° West  Level Estimated
10:19AM 70.8511 1.3794 309° West  Level Estimated
10:20AM 70.9310 1.0709 308° West  Level Estimated
10:21AM 71.0103 0.7598 308° West  Level Estimated
10:22AM 71.0892 0.4463 308° West  Level Estimated
10:23AM 71.1675 0.1302 308° West  Level Estimated
10:24AM 71.2453 -0.1884 307° West  Level Estimated
10:25AM 71.3225 -0.5095 307° West  Level Estimated
10:26AM 71.3992 -0.8332 307° West  Level Estimated
10:27AM 71.4754 -1.1595 306° West  Level Estimated
10:28AM 71.5509 -1.4884 306° West  Level Estimated
10:29AM 71.6260 -1.8199 306° West  Level Estimated
10:30AM 71.7004 -2.1540 305° West  Level Estimated
10:31AM 71.7742 -2.4907 305° West  Level Estimated
10:32AM 71.8475 -2.8300 305° West  Level Estimated
10:33AM 71.9201 -3.1720 305° West  Level Estimated
10:34AM 71.9921 -3.5167 304° West  Level Estimated
10:35AM 72.0636 -3.8640 304° West  Level Estimated
10:36AM 72.1344 -4.2140 304° West  Level Estimated
10:37AM 72.2045 -4.5667 303° West  Level Estimated
10:38AM 72.2741 -4.9220 303° West  Level Estimated
10:39AM 72.3430 -5.2801 303° West  Level Estimated
10:40AM 72.4112 -5.6409 302° West  Level Estimated
10:41AM 72.4788 -6.0043 302° West  Level Estimated
10:42AM 72.5457 -6.3705 301° West  Level Estimated
10:43AM 72.6120 -6.7394 301° West  Level Estimated
10:44AM 72.6775 -7.1110 301° West  Level Estimated
10:45AM 72.7424 -7.4854 300° West  Level Estimated
10:46AM 72.8065 -7.8624 300° West  Level Estimated
10:47AM 72.8700 -8.2422 300° West  Level Estimated
10:48AM 72.9328 -8.6247 299° West  Level Estimated
10:49AM 72.9948 -9.0099 299° West  Level Estimated
10:50AM 73.0561 -9.3979 299° West  Level Estimated
10:51AM 73.1167 -9.7886 298° West  Level Estimated
10:52AM 73.1765 -10.1820 298° West  Level Estimated
10:53AM 73.2355 -10.5781 297° West  Level Estimated
10:54AM 73.2938 -10.9769 297° West  Level Estimated
10:55AM 73.3514 -11.3784 297° West  Level Estimated
10:56AM 73.4081 -11.7825 296° West  Level Estimated
10:57AM 73.4641 -12.1894 296° West  Level Estimated
10:58AM 73.5193 -12.5989 296° West  Level Estimated
10:59AM 73.5736 -13.0111 295° West  Level Estimated
11:00AM 73.6272 -13.4259 295° West  Level Estimated
11:01AM 73.6799 -13.8434 294° West  Level Estimated
11:02AM 73.7319 -14.2634 294° West  Level Estimated
11:03AM 73.7830 -14.6861 294° West  Level Estimated
11:04AM 73.8332 -15.1113 293° West  Level Estimated
11:05AM 73.8826 -15.5391 293° West  Level Estimated
11:06AM 73.9312 -15.9695 292° West  Level Estimated
11:07AM 73.9788 -16.4023 292° West  Level Estimated
11:08AM 74.0256 -16.8377 292° West  Level Estimated
11:09AM 74.0715 -17.2755 291° West  Level Estimated
11:10AM 74.1166 -17.7157 291° West  Level Estimated
11:11AM 74.1607 -18.1584 290° West  Level Estimated
11:12AM 74.2040 -18.6034 290° West  Level Estimated
11:13AM 74.2463 -19.0508 289° West  Level Estimated
11:14AM 74.2877 -19.5006 289° West  Level Estimated
11:15AM 74.3282 -19.9526 289° West  Level Estimated
11:16AM 74.3678 -20.4069 288° West  Level Estimated
11:17AM 74.4064 -20.8634 288° West  Level Estimated
11:18AM 74.4440 -21.3221 287° West  Level Estimated
11:19AM 74.4807 -21.7829 287° West  Level Estimated
11:20AM 74.5165 -22.2458 286° West  Level Estimated
11:21AM 74.5513 -22.7108 286° West  Level Estimated
11:22AM 74.5851 -23.1778 285° West  Level Estimated
11:23AM 74.6179 -23.6468 285° West  Level Estimated
11:24AM 74.6498 -24.1177 285° West  Level Estimated
11:25AM 74.6806 -24.5905 284° West  Level Estimated
11:26AM 74.7105 -25.0651 284° West  Level Estimated
11:27AM 74.7394 -25.5416 283° West  Level Estimated
11:28AM 74.7672 -26.0197 283° West  Level Estimated
11:29AM 74.7940 -26.4995 282° West  Level Estimated
11:30AM 74.8198 -26.9810 282° West  Level Estimated
11:31AM 74.8446 -27.4640 281° West  Level Estimated
11:32AM 74.8684 -27.9485 281° West  Level Estimated
11:33AM 74.8911 -28.4345 280° West  Level Estimated
11:34AM 74.9128 -28.9219 280° West  Level Estimated
11:35AM 74.9334 -29.4106 279° West  Level Estimated
11:36AM 74.9530 -29.9006 279° West  Level Estimated
11:37AM 74.9715 -30.3918 279° West  Level Estimated
11:38AM 74.9890 -30.8842 278° West  Level Estimated
11:39AM 75.0054 -31.3776 278° West  Level Estimated
11:40AM 75.0208 -31.8721 277° West  Level Estimated
11:41AM 75.0350 -32.3675 277° West  Level Estimated
11:42AM 75.0482 -32.8638 276° West  Level Estimated
11:43AM 75.0604 -33.3610 276° West  Level Estimated
11:44AM 75.0714 -33.8588 275° West  Level Estimated
11:45AM 75.0814 -34.3574 275° West  Level Estimated
11:46AM 75.0903 -34.8566 274° West  Level Estimated
11:47AM 75.0981 -35.3564 274° West  Level Estimated
11:48AM 75.1049 -35.8566 273° West  Level Estimated
11:49AM 75.1105 -36.3572 273° West  Level Estimated
11:50AM 75.1151 -36.8582 272° West  Level Estimated
11:51AM 75.1186 -37.3594 272° West  Level Estimated
11:52AM 75.1209 -37.8608 271° West  Level Estimated
11:53AM 75.1222 -38.3624 271° West  Level Estimated
11:54AM 75.1225 -38.8639 270° West  Level Estimated
11:55AM 75.1216 -39.3655 270° West  Level Estimated
11:56AM 75.1196 -39.8670 269° West  Level Estimated
11:57AM 75.1165 -40.3683 269° West  Level Estimated
11:58AM 75.1124 -40.8694 268° West  Level Estimated
11:59AM 75.1071 -41.3701 268° West  Level Estimated
12:00PM 75.1008 -41.8705 267° West  Level Estimated
12:01PM 75.0934 -42.3704 267° West  Level Estimated
12:02PM 75.0849 -42.8699 266° West  Level Estimated
12:03PM 75.0754 -43.3687 266° West  Level Estimated
12:04PM 75.0647 -43.8668 265° West  Level Estimated
12:05PM 75.0530 -44.3643 265° West  Level Estimated
12:06PM 75.0402 -44.8609 265° West  Level Estimated
12:07PM 75.0263 -45.3567 264° West  Level Estimated
12:08PM 75.0114 -45.8515 264° West  Level Estimated
12:09PM 74.9954 -46.3453 263° West  Level Estimated
12:10PM 74.9783 -46.8381 263° West  Level Estimated
12:11PM 74.9602 -47.3298 262° West  Level Estimated
12:12PM 74.9410 -47.8202 262° West  Level Estimated
12:13PM 74.9207 -48.3094 261° West  Level Estimated
12:14PM 74.8994 -48.7973 261° West  Level Estimated
12:15PM 74.8771 -49.2839 260° West  Level Estimated
12:16PM 74.8538 -49.7689 260° West  Level Estimated
12:17PM 74.8294 -50.2525 259° West  Level Estimated
12:18PM 74.8039 -50.7346 259° West  Level Estimated
12:19PM 74.7775 -51.2150 258° West  Level Estimated
12:20PM 74.7500 -51.6938 258° West  Level Estimated
12:21PM 74.7215 -52.1709 257° West  Level Estimated
12:22PM 74.6921 -52.6462 257° West  Level Estimated
12:23PM 74.6616 -53.1197 257° West  Level Estimated
12:24PM 74.6301 -53.5913 256° West  Level Estimated
12:25PM 74.5977 -54.0610 256° West  Level Estimated
12:26PM 74.5642 -54.5288 255° West  Level Estimated
12:27PM 74.5298 -54.9946 255° West  Level Estimated
12:28PM 74.4944 -55.4583 254° West  Level Estimated
12:29PM 74.4581 -55.9199 254° West  Level Estimated
12:30PM 74.4207 -56.3794 253° West  Level Estimated
12:31PM 74.3825 -56.8368 253° West  Level Estimated
12:32PM 74.3433 -57.2919 252° West  Level Estimated
12:33PM 74.3031 -57.7448 252° West  Level Estimated
12:34PM 74.2621 -58.1954 252° West  Level Estimated
12:35PM 74.2201 -58.6437 251° West  Level Estimated
12:36PM 74.1772 -59.0896 251° West  Level Estimated
12:37PM 74.1334 -59.5332 250° West  Level Estimated
12:38PM 74.0887 -59.9743 250° West  Level Estimated
12:39PM 74.0431 -60.4131 249° West  Level Estimated
12:40PM 73.9967 -60.8494 249° West  Level Estimated
12:41PM 73.9493 -61.2832 249° West  Level Estimated
12:42PM 73.9011 -61.7145 248° West  Level Estimated
12:43PM 73.8520 -62.1432 248° West  Level Estimated
12:44PM 73.8021 -62.5694 247° West  Level Estimated
12:45PM 73.7513 -62.9931 247° West  Level Estimated
12:46PM 73.6997 -63.4141 247° West  Level Estimated
12:47PM 73.6473 -63.8326 246° West  Level Estimated
12:48PM 73.5940 -64.2484 246° West  Level Estimated
12:49PM 73.5399 -64.6616 245° Southwest  Level Estimated
12:50PM 73.4851 -65.0721 245° Southwest  Level Estimated
12:51PM 73.4294 -65.4799 245° Southwest  Level Estimated
12:52PM 73.3729 -65.8851 244° Southwest  Level Estimated
12:53PM 73.3157 -66.2877 244° Southwest  Level Estimated
12:54PM 73.2577 -66.6875 243° Southwest  Level Estimated
12:55PM 73.1989 -67.0846 243° Southwest  Level Estimated
12:56PM 73.1394 -67.4790 243° Southwest  Level Estimated
12:57PM 73.0791 -67.8707 242° Southwest  Level Estimated
12:58PM 73.0181 -68.2597 242° Southwest  Level Estimated
12:59PM 72.9563 -68.6459 242° Southwest  Level Estimated
01:00PM 72.8938 -69.0295 241° Southwest  Level Estimated
01:01PM 72.8306 -69.4103 241° Southwest  Level Estimated
01:02PM 72.7667 -69.7884 240° Southwest  Level Estimated
01:03PM 72.7021 -70.1638 240° Southwest  Level Estimated
01:04PM 72.6368 -70.5364 240° Southwest  Level Estimated
01:05PM 72.5696 -70.9131 239° Southwest  Level Estimated
01:06PM 72.5017 -71.2869 239° Southwest  Level Estimated
01:07PM 72.4332 -71.6579 239° Southwest  Level Estimated
01:08PM 72.3639 -72.0261 238° Southwest  Level Estimated
01:09PM 72.2939 -72.3915 238° Southwest  Level Estimated
01:10PM 72.2233 -72.7541 238° Southwest  Level Estimated
01:11PM 72.1520 -73.1139 237° Southwest  Level Estimated
01:12PM 72.0801 -73.4709 237° Southwest  Level Estimated
01:13PM 72.0075 -73.8252 237° Southwest  Level Estimated
01:14PM 71.9343 -74.1767 236° Southwest  Level Estimated
01:15PM 71.8604 -74.5254 236° Southwest  Level Estimated
01:16PM 71.7859 -74.8714 236° Southwest  Level Estimated
01:17PM 71.7108 -75.2147 235° Southwest  Level Estimated
01:18PM 71.6351 -75.5552 235° Southwest  Level Estimated
01:19PM 71.5588 -75.8931 235° Southwest  Level Estimated
01:20PM 71.4819 -76.2282 234° Southwest  Level Estimated
01:21PM 71.4044 -76.5606 234° Southwest  Level Estimated
01:22PM 71.3264 -76.8904 234° Southwest  Level Estimated
01:23PM 71.2478 -77.2175 233° Southwest  Level Estimated
01:24PM 71.1686 -77.5420 233° Southwest  Level Estimated
01:25PM 71.0888 -77.8638 233° Southwest  Level Estimated
01:26PM 71.0085 -78.1830 232° Southwest  Level Estimated
01:27PM 70.9277 -78.4997 232° Southwest  Level Estimated
01:28PM 70.8463 -78.8137 232° Southwest  Level Estimated
01:29PM 70.7644 -79.1252 231° Southwest  Level Estimated
01:30PM 70.6820 -79.4341 231° Southwest  Level Estimated
01:31PM 70.5990 -79.7405 231° Southwest  Level Estimated
01:32PM 70.5155 -80.0444 231° Southwest  Level Estimated
01:33PM 70.4316 -80.3458 230° Southwest  Level Estimated
01:34PM 70.3471 -80.6447 230° Southwest  Level Estimated
01:35PM 70.2622 -80.9411 230° Southwest  Level Estimated
01:36PM 70.1768 -81.2351 229° Southwest  Level Estimated
01:37PM 70.0909 -81.5267 229° Southwest  Level Estimated
01:38PM 70.0045 -81.8158 229° Southwest  Level Estimated
01:39PM 69.9176 -82.1026 229° Southwest  Level Estimated
01:40PM 69.8303 -82.3870 228° Southwest  Level Estimated
01:41PM 69.7426 -82.6690 228° Southwest  Level Estimated
01:42PM 69.6544 -82.9487 228° Southwest  Level Estimated
01:43PM 69.5658 -83.2261 228° Southwest  Level Estimated
01:44PM 69.4767 -83.5011 227° Southwest  Level Estimated
01:45PM 69.3872 -83.7739 227° Southwest  Level Estimated
01:46PM 69.2972 -84.0444 227° Southwest  Level Estimated
01:47PM 69.2069 -84.3127 227° Southwest  Level Estimated
01:48PM 69.1161 -84.5788 226° Southwest  Level Estimated
01:49PM 69.0249 -84.8427 226° Southwest  Level Estimated
01:50PM 68.9334 -85.1043 226° Southwest  Level Estimated
01:51PM 68.8414 -85.3638 226° Southwest  Level Estimated
01:52PM 68.7490 -85.6212 225° Southwest  Level Estimated
01:53PM 68.6563 -85.8764 225° Southwest  Level Estimated
01:54PM 68.5631 -86.1295 225° Southwest  Level Estimated
01:55PM 68.4696 -86.3806 225° Southwest  Level Estimated
01:56PM 68.3758 -86.6295 224° Southwest  Level Estimated
01:57PM 68.2815 -86.8764 224° Southwest  Level Estimated
01:58PM 68.1869 -87.1213 224° Southwest  Level Estimated
01:59PM 68.0919 -87.3641 224° Southwest  Level Estimated
02:00PM 67.9966 -87.6050 223° Southwest  Level Estimated
02:01PM 67.9009 -87.8438 223° Southwest  Level Estimated
02:02PM 67.8049 -88.0808 223° Southwest  Level Estimated
02:03PM 67.7085 -88.3157 223° Southwest  Level Estimated
02:04PM 67.6118 -88.5488 223° Southwest  Level Estimated
02:05PM 67.5148 -88.7799 222° Southwest  Level Estimated
02:06PM 67.4175 -89.0092 222° Southwest  Level Estimated
02:07PM 67.3198 -89.2366 222° Southwest  Level Estimated
02:08PM 67.2218 -89.4621 222° Southwest  Level Estimated
02:09PM 67.1235 -89.6858 222° Southwest  Level Estimated
02:10PM 67.0249 -89.9077 221° Southwest  Level Estimated
02:11PM 66.9259 -90.1278 221° Southwest  Level Estimated
02:12PM 66.8267 -90.3461 221° Southwest  Level Estimated
02:13PM 66.7272 -90.5627 221° Southwest  Level Estimated
02:14PM 66.6274 -90.7775 221° Southwest  Level Estimated
02:15PM 66.5273 -90.9905 220° Southwest  Level Estimated
02:16PM 66.4269 -91.2019 220° Southwest  Level Estimated
02:17PM 66.3262 -91.4116 220° Southwest  Level Estimated
02:18PM 66.2252 -91.6196 220° Southwest  Level Estimated
02:19PM 66.1240 -91.8259 220° Southwest  Level Estimated
02:20PM 66.0225 -92.0306 219° Southwest  Level Estimated
02:21PM 65.9207 -92.2337 219° Southwest  Level Estimated
02:22PM 65.8186 -92.4351 219° Southwest  Level Estimated
02:23PM 65.7163 -92.6350 219° Southwest  Level Estimated
02:24PM 65.6138 -92.8333 219° Southwest  Level Estimated
02:25PM 65.5109 -93.0300 218° Southwest  Level Estimated
02:26PM 65.4079 -93.2252 218° Southwest  Level Estimated
02:27PM 65.3045 -93.4188 218° Southwest  Level Estimated
02:28PM 65.2010 -93.6110 218° Southwest  Level Estimated
02:29PM 65.0971 -93.8016 218° Southwest  Level Estimated
02:30PM 64.9931 -93.9908 218° Southwest  Level Estimated
02:31PM 64.8888 -94.1784 217° Southwest  Level Estimated
02:32PM 64.7843 -94.3647 217° Southwest  Level Estimated
02:33PM 64.6795 -94.5495 217° Southwest  Level Estimated
02:34PM 64.5745 -94.7328 217° Southwest  Level Estimated
02:35PM 64.4693 -94.9148 217° Southwest  Level Estimated
02:36PM 64.3639 -95.0953 217° Southwest  Level Estimated
02:37PM 64.2582 -95.2745 216° Southwest  Level Estimated
02:38PM 64.1523 -95.4523 216° Southwest  Level Estimated
02:39PM 64.0462 -95.6288 216° Southwest  Level Estimated
02:40PM 63.9399 -95.8039 216° Southwest  Level Estimated
02:41PM 63.8334 -95.9777 216° Southwest  Level Estimated
02:42PM 63.7267 -96.1502 216° Southwest  Level Estimated
02:43PM 63.6198 -96.3214 215° Southwest  Level Estimated
02:44PM 63.5126 -96.4913 215° Southwest  Level Estimated
02:45PM 63.4053 -96.6599 215° Southwest  Level Estimated
02:46PM 63.2978 -96.8273 215° Southwest  Level Estimated
02:47PM 63.1901 -96.9934 215° Southwest  Level Estimated
02:48PM 63.0822 -97.1583 215° Southwest  Level Estimated
02:49PM 62.9741 -97.3220 215° Southwest  Level Estimated
02:50PM 62.8658 -97.4844 214° Southwest  Level Estimated
02:51PM 62.7573 -97.6457 214° Southwest  Level Estimated
02:52PM 62.6487 -97.8058 214° Southwest  Level Estimated
02:53PM 62.5398 -97.9647 214° Southwest  Level Estimated
02:54PM 62.4308 -98.1225 214° Southwest  Level Estimated
02:55PM 62.3216 -98.2791 214° Southwest  Level Estimated
02:56PM 62.2122 -98.4346 214° Southwest  Level Estimated
02:57PM 62.1027 -98.5889 213° Southwest  Level Estimated
02:58PM 61.9930 -98.7422 213° Southwest  Level Estimated
02:59PM 61.8831 -98.8943 213° Southwest  Level Estimated
03:00PM 61.7730 -99.0453 213° Southwest  Level Estimated
03:01PM 61.6628 -99.1953 213° Southwest  Level Estimated
03:02PM 61.5525 -99.3442 213° Southwest  Level Estimated
03:03PM 61.4419 -99.4921 213° Southwest  Level Estimated
03:04PM 61.3312 -99.6389 212° Southwest  Level Estimated
03:05PM 61.2204 -99.7847 212° Southwest  Level Estimated
03:06PM 61.1094 -99.9294 212° Southwest  Level Estimated
03:07PM 60.9982 -100.0732 212° Southwest  Level Estimated
03:08PM 60.8869 -100.2159 212° Southwest  Level Estimated
03:09PM 60.7754 -100.3576 212° Southwest  Level Estimated
03:10PM 60.6638 -100.4984 212° Southwest  Level Estimated
03:10PM 62.7000 -106.2833 211° Southwest 520 598 36,000  Level Edmonton Center
03:11PM 60.5521 -100.6382 212° Southwest  Level Estimated
03:11PM 62.5833 -106.3833 202° Southwest 480 552 36,000  Level Edmonton Center
03:12PM 60.4402 -100.7770 211° Southwest  Level Estimated
03:12PM 62.4667 -106.5000 205° Southwest 470 541 36,000  Level Edmonton Center
03:13PM 60.3281 -100.9149 211° Southwest  Level Estimated
03:13PM 62.3167 -106.6000 197° South 480 552 36,000  Level Edmonton Center
03:14PM 60.2159 -101.0518 211° Southwest  Level Estimated
03:14PM 62.1833 -106.7000 199° South 480 552 36,000  Level Edmonton Center
03:15PM 60.1036 -101.1878 211° Southwest  Level Estimated
03:15PM 62.0667 -106.8000 202° Southwest 480 552 36,000  Level Edmonton Center
03:16PM 61.9500 -106.9000 202° Southwest 480 552 36,000  Level Edmonton Center
03:17PM 61.8167 -107.0000 200° South 480 552 36,000  Level Edmonton Center
03:18PM 61.6833 -107.1000 200° South 470 541 36,000  Level Edmonton Center
03:19PM 61.5667 -107.2000 202° Southwest 470 541 36,000  Level Edmonton Center
03:20PM 61.4500 -107.3000 202° Southwest 470 541 36,000  Level Edmonton Center
03:21PM 61.3333 -107.4333 209° Southwest 460 529 36,000  Level Edmonton Center
03:22PM 61.2000 -107.5333 200° South 460 529 36,000  Level Edmonton Center
03:23PM 61.0833 -107.6667 209° Southwest 460 529 36,000  Level Edmonton Center
03:24PM 60.9667 -107.7500 199° South 460 529 36,000  Level Edmonton Center
03:25PM 60.8500 -107.8500 203° Southwest 470 541 36,000  Level Edmonton Center
03:26PM 60.7167 -107.9833 206° Southwest 460 529 36,000  Level Edmonton Center
03:27PM 60.6000 -108.0667 199° South 460 529 36,000  Level Edmonton Center
03:28PM 60.4833 -108.2000 209° Southwest 460 529 36,000  Level Edmonton Center
03:29PM 60.3667 -108.2833 199° South 460 529 36,000  Level Edmonton Center
03:30PM 60.2333 -108.3833 200° South 460 529 36,000  Level Edmonton Center
03:31PM 60.1167 -108.5000 206° Southwest 460 529 36,000  Level Edmonton Center
03:32PM 60.0000 -108.5833 200° South 470 541 36,000  Level Edmonton Center
03:33PM 59.8667 -108.6833 201° Southwest 470 541 36,000  Level Edmonton Center
03:34PM 59.7500 -108.8000 207° Southwest 470 541 36,000  Level Edmonton Center
03:35PM 59.6333 -108.8833 200° South 470 541 36,000  Level Edmonton Center
03:36PM 59.5000 -108.9667 198° South 470 541 36,000  Level Edmonton Center
03:37PM 59.3833 -109.1000 210° Southwest 470 541 36,000  Level Edmonton Center
03:38PM 59.2667 -109.1833 200° South 470 541 36,000  Level Edmonton Center
03:39PM 59.1333 -109.3000 204° Southwest 460 529 36,000  Level Edmonton Center
03:40PM 59.0167 -109.3833 200° South 460 529 36,000  Level Edmonton Center
03:41PM 58.9000 -109.4667 200° South 460 529 36,000  Level Edmonton Center
03:42PM 58.7667 -109.5833 204° Southwest 460 529 36,000  Level Edmonton Center
03:43PM 58.6500 -109.6667 200° South 460 529 36,000  Level Edmonton Center
03:44PM 58.5500 -109.7500 204° Southwest 460 529 36,000 540 Level Edmonton Center
03:45PM 58.4167 -109.8500 201° Southwest 460 529 37,100 960 Climbing Edmonton Center
03:46PM 58.3000 -109.9333 201° Southwest 450 518 38,000 420 Climbing Edmonton Center
03:47PM 58.1833 -110.0167 201° Southwest 450 518 38,000  Level Edmonton Center
03:48PM 58.0667 -110.1333 208° Southwest 460 529 38,000  Level Edmonton Center
03:49PM 57.9333 -110.2000 195° South 460 529 38,000  Level Edmonton Center
03:50PM 57.8333 -110.2833 204° Southwest 460 529 38,000  Level Edmonton Center
03:51PM 57.7000 -110.3667 198° South 450 518 38,000  Level Edmonton Center
03:52PM 57.5833 -110.4667 205° Southwest 450 518 38,000  Level Edmonton Center
03:53PM 57.4667 -110.5500 201° Southwest 450 518 38,000  Level Edmonton Center
03:54PM 57.3500 -110.6333 201° Southwest 450 518 38,000  Level Edmonton Center
03:55PM 57.2333 -110.7333 205° Southwest 460 529 38,000  Level Edmonton Center
03:56PM 57.1000 -110.8000 195° South 450 518 38,000  Level Edmonton Center
03:57PM 56.9833 -110.8833 201° Southwest 460 529 38,000  Level Edmonton Center
03:58PM 56.8667 -110.9833 205° Southwest 460 529 38,000  Level Edmonton Center
03:59PM 56.7500 -111.0667 201° Southwest 460 529 38,000  Level Edmonton Center
04:00PM 56.6167 -111.1333 195° South 460 529 38,000  Level Edmonton Center
04:01PM 56.5167 -111.2000 200° South 460 529 38,000  Level Edmonton Center
04:02PM 56.3833 -111.2833 199° South 460 529 38,000  Level Edmonton Center
04:03PM 56.2667 -111.3500 198° South 460 529 38,000  Level Edmonton Center
04:04PM 56.1167 -111.4167 194° South 460 529 38,000  Level Edmonton Center
04:05PM 56.0000 -111.4833 198° South 470 541 38,000  Level Edmonton Center
04:06PM 55.8833 -111.5500 198° South 470 541 38,000  Level Edmonton Center
04:07PM 55.7500 -111.6333 199° South 470 541 38,000  Level Edmonton Center
04:08PM 55.6333 -111.7000 198° South 460 529 38,000  Level Edmonton Center
04:09PM 55.5167 -111.7667 198° South 460 529 38,000  Level Edmonton Center
04:14PM 54.9020 -112.0890 198° South 470 541 38,000  Level FlightAware
04:15PM 54.8100 -112.1380 197° South 467 537 38,000  Level FlightAware
04:16PM 54.7240 -112.1830 197° South 468 539 38,000  Level FlightAware
04:16PM 54.6320 -112.2310 197° South 470 541 38,000  Level FlightAware
04:17PM 54.5480 -112.2750 197° South 471 542 38,000  Level FlightAware
04:18PM 54.4650 -112.3170 196° South 473 544 38,000  Level FlightAware
04:18PM 54.3670 -112.3680 197° South 474 545 38,000  Level FlightAware
04:19PM 54.2530 -112.4260 197° South 469 540 38,000  Level FlightAware
04:20PM 54.1900 -112.4590 197° South 471 542 38,000  Level FlightAware
04:21PM 54.0720 -112.5190 197° South 469 540 38,000  Level FlightAware
04:21PM 53.9940 -112.5570 196° South 469 540 38,000  Level FlightAware
04:22PM 53.9030 -112.6040 197° South 469 540 38,000  Level FlightAware
04:23PM 53.8120 -112.6490 196° South 473 544 38,000  Level FlightAware
04:23PM 53.7380 -112.6870 197° South 471 542 38,000  Level FlightAware
04:25PM 53.5580 -112.7760 196° South 473 544 38,000  Level FlightAware
04:26PM 53.4090 -112.8490 196° South 468 539 38,000  Level FlightAware
04:27PM 53.2630 -112.9200 196° South 467 537 38,000  Level FlightAware
04:28PM 53.1160 -112.9920 196° South 467 537 38,000  Level FlightAware
04:30PM 52.9720 -113.0620 196° South 454 522 38,000  Level FlightAware
04:30PM 52.8900 -113.1090 199° South 463 533 38,000  Level FlightAware
04:31PM 52.8000 -113.1600 199° South 457 526 38,000  Level FlightAware
04:32PM 52.7160 -113.2060 198° South 460 529 38,000  Level FlightAware
04:32PM 52.6250 -113.2550 198° South 461 531 38,000  Level FlightAware
04:33PM 52.5420 -113.3000 198° South 462 532 38,000  Level FlightAware
04:34PM 52.4600 -113.3450 198° South 473 544 38,000  Level FlightAware
04:35PM 52.3680 -113.3940 198° South 473 544 38,000  Level FlightAware
04:35PM 52.2840 -113.4400 199° South 473 544 38,000  Level FlightAware
04:36PM 52.2020 -113.4840 198° South 474 545 38,000  Level FlightAware
04:37PM 52.1060 -113.5350 198° South 476 548 38,000  Level FlightAware
04:37PM 52.0240 -113.5790 198° South 477 549 38,000  Level FlightAware
04:38PM 51.9280 -113.6300 198° South 473 544 38,000  Level FlightAware
04:39PM 51.8460 -113.6730 198° South 474 545 38,000  Level FlightAware
04:39PM 51.7510 -113.7230 198° South 476 548 38,000  Level FlightAware
04:40PM 51.6650 -113.7680 198° South 476 548 38,000  Level FlightAware
04:41PM 51.5790 -113.8130 198° South 475 547 38,000  Level FlightAware
04:42PM 51.4830 -113.8630 198° South 476 548 38,000  Level FlightAware
04:42PM 51.3980 -113.9070 198° South 476 548 38,000  Level FlightAware
04:43PM 51.3130 -113.9510 198° South 477 549 38,000  Level FlightAware
04:44PM 51.2180 -113.9990 198° South 477 549 38,000  Level FlightAware
04:44PM 51.1340 -114.0420 198° South 486 559 38,000  Level FlightAware
04:45PM 51.0460 -114.0870 198° South 486 559 38,000  Level FlightAware
04:46PM 50.9500 -114.1350 197° South 487 560 38,000  Level FlightAware
04:46PM 50.8640 -114.1790 198° South 487 560 38,000  Level FlightAware
04:47PM 50.7660 -114.2280 198° South 488 562 38,000  Level FlightAware
04:48PM 50.6800 -114.2710 198° South 491 565 38,000  Level FlightAware
04:49PM 50.5820 -114.3200 198° South 491 565 38,000  Level FlightAware
04:49PM 50.4960 -114.3620 197° South 491 565 38,000  Level FlightAware
04:50PM 50.4080 -114.4060 198° South 493 567 38,000  Level FlightAware
04:51PM 50.3100 -114.4540 197° South 490 564 38,000  Level FlightAware
04:51PM 50.2250 -114.4960 198° South 489 563 38,000  Level FlightAware
04:52PM 50.1410 -114.5370 197° South 490 564 38,000  Level FlightAware
04:53PM 50.0400 -114.5860 197° South 490 564 38,000  Level FlightAware
04:53PM 49.9530 -114.6280 197° South 490 564 38,000  Level FlightAware
04:54PM 49.8630 -114.6720 197° South 489 563 38,000  Level FlightAware
04:55PM 49.7730 -114.7150 197° South 490 564 38,000  Level FlightAware
04:55PM 49.6840 -114.7580 197° South 485 558 38,000  Level FlightAware
04:56PM 49.5860 -114.8050 197° South 489 563 38,000  Level FlightAware
04:57PM 49.4970 -114.8470 197° South 490 564 38,000  Level FlightAware
04:58PM 49.3990 -114.8930 197° South 489 563 38,000  Level FlightAware
04:58PM 49.3100 -114.9350 197° South 492 566 38,000  Level FlightAware
04:59PM 49.2220 -114.9760 197° South 502 578 38,000  Level FlightAware
05:00PM 49.1240 -115.0220 197° South 503 579 38,000  Level FlightAware
05:00PM 49.0330 -115.0640 197° South 502 578 38,000  Level FlightAware
05:01PM 48.9360 -115.1090 197° South 501 577 38,000  Level FlightAware
05:02PM 48.8450 -115.1520 197° South 503 579 38,000  Level FlightAware
05:02PM 48.7570 -115.1960 198° South 494 568 38,000  Level FlightAware
05:03PM 48.6610 -115.2490 200° South 499 574 38,000  Level FlightAware
05:04PM 48.5730 -115.2990 201° Southwest 495 570 38,000  Level FlightAware
05:05PM 48.4800 -115.3520 201° Southwest 496 571 38,000  Level FlightAware
05:05PM 48.3930 -115.4020 201° Southwest 497 572 38,000  Level FlightAware
05:06PM 48.3070 -115.4510 201° Southwest 498 573 38,000  Level FlightAware
05:07PM 48.2200 -115.4980 200° South 498 573 38,000  Level FlightAware
05:07PM 48.1460 -115.5390 200° South 498 573 38,000  Level FlightAware
05:08PM 48.0730 -115.5790 200° South 498 573 38,000  Level FlightAware
05:09PM 47.9990 -115.6190 200° South 498 573 38,000  Level FlightAware
05:09PM 47.9260 -115.6590 200° South 498 573 38,000  Level FlightAware
05:10PM 47.8340 -115.7090 200° South 498 573 38,000  Level FlightAware
05:11PM 47.7600 -115.7490 200° South 498 573 38,000  Level FlightAware
05:12PM 47.6860 -115.7880 200° South 498 573 38,000  Level FlightAware
05:12PM 47.6130 -115.8280 200° South 498 573 38,000  Level FlightAware
05:13PM 47.5210 -115.8780 200° South 498 573 38,000  Level FlightAware
05:14PM 47.4470 -115.9170 200° South 498 573 38,000  Level FlightAware
05:14PM 47.3730 -115.9570 200° South 498 573 38,000  Level FlightAware
05:15PM 47.3000 -115.9970 200° South 498 573 38,000  Level FlightAware
05:16PM 47.2080 -116.0460 200° South 498 573 38,000  Level FlightAware
05:16PM 46.9411 -116.2003 200° South 500 575 38,000  Level Salt Lake Center
05:17PM 46.8356 -116.2539 199° South 500 575 38,000  Level Seattle Center
05:23PM 46.0440 -116.6680 199° South 502 578 38,000  Level FlightAware
05:24PM 45.9140 -116.7350 200° South 502 578 38,000  Level FlightAware
05:25PM 45.8250 -116.7810 200° South 501 577 38,000  Level FlightAware
05:26PM 45.7360 -116.8260 199° South 502 578 38,000  Level FlightAware
05:26PM 45.6470 -116.8710 199° South 502 578 38,000  Level FlightAware
05:27PM 45.5530 -116.9190 200° South 502 578 38,000  Level FlightAware
05:28PM 45.4660 -116.9620 199° South 502 578 38,000  Level FlightAware
05:28PM 45.3670 -117.0120 200° South 502 578 38,000  Level FlightAware
05:29PM 45.2790 -117.0560 199° South 503 579 38,000  Level FlightAware
05:30PM 45.1930 -117.0990 199° South 503 579 38,000  Level FlightAware
05:31PM 45.1180 -117.1350 199° South 503 579 38,000  Level FlightAware
05:31PM 45.0430 -117.1720 199° South 503 579 38,000  Level FlightAware
05:32PM 44.9680 -117.2080 199° South 503 579 38,000  Level FlightAware
05:33PM 44.8930 -117.2440 199° South 503 579 38,000  Level FlightAware
05:33PM 44.8000 -117.2900 199° South 503 579 38,000  Level FlightAware
05:34PM 44.7250 -117.3260 199° South 503 579 38,000  Level FlightAware
05:35PM 44.6500 -117.3620 199° South 503 579 38,000  Level FlightAware
05:35PM 44.5750 -117.3980 199° South 503 579 38,000  Level FlightAware
05:36PM 44.5010 -117.4350 200° South 503 579 38,000  Level FlightAware
05:37PM 44.4070 -117.4800 199° South 503 579 38,000  Level FlightAware
05:38PM 44.3320 -117.5160 199° South 503 579 38,000  Level FlightAware
05:38PM 44.2570 -117.5520 199° South 503 579 38,000  Level FlightAware
05:39PM 44.1830 -117.5880 199° South 503 579 38,000  Level FlightAware
05:39PM 43.9636 -117.6964 199° South 502 578 38,000  Level Salt Lake Center
05:40PM 43.8361 -117.7567 199° South 504 580 38,000  Level Salt Lake Center
05:41PM 43.6886 -117.8269 199° South 505 581 38,000  Level Salt Lake Center
05:42PM 43.5619 -117.8875 199° South 503 579 38,000  Level Salt Lake Center
05:43PM 43.4133 -117.9572 199° South 505 581 38,000  Level Salt Lake Center
05:44PM 43.2861 -118.0164 199° South 506 582 38,000  Level Salt Lake Center
05:45PM 43.1375 -118.0844 198° South 505 581 38,000  Level Salt Lake Center
05:46PM 43.0100 -118.1439 199° South 507 583 38,000  Level Salt Lake Center
05:47PM 42.8622 -118.2108 198° South 506 582 38,000  Level Salt Lake Center
05:48PM 42.7311 -118.2739 199° South 501 577 38,000  Level Salt Lake Center
05:49PM 42.5972 -118.3356 199° South 507 583 38,000  Level Salt Lake Center
05:50PM 42.4506 -118.3994 198° South 505 581 38,000  Level Salt Lake Center
05:52PM 42.3225 -118.4578 199° South 507 583 38,000  Level Salt Lake Center
05:53PM 42.1950 -118.5144 198° South 505 581 38,000  Level Salt Lake Center
05:54PM 42.0436 -118.5806 198° South 509 586 38,000  Level Salt Lake Center
05:55PM 41.9161 -118.6389 199° South 507 583 38,000  Level Salt Lake Center
05:56PM 41.7672 -118.7050 198° South 505 581 38,000  Level Salt Lake Center
05:57PM 41.6408 -118.7600 198° South 501 577 38,000  Level Salt Lake Center
05:57PM 41.5364 -118.8072 199° South 502 578 38,000  Level Oakland Center
05:58PM 41.4931 -118.8253 197° South 500 575 38,000  Level Salt Lake Center
05:59PM 41.3686 -118.8794 198° South 496 571 38,000  Level Salt Lake Center
06:05PM 40.5540 -119.2290 198° South 478 550 38,000  Level FlightAware
06:06PM 40.4630 -119.2670 198° South 477 549 38,000  Level FlightAware
06:06PM 40.3630 -119.3100 198° South 477 549 38,000  Level FlightAware
06:07PM 40.2770 -119.3460 198° South 477 549 38,000  Level FlightAware
06:08PM 40.1950 -119.3810 198° South 477 549 38,000  Level FlightAware
06:09PM 40.1020 -119.4190 197° South 473 544 38,000  Level FlightAware
06:09PM 40.0040 -119.4610 198° South 472 543 38,000  Level FlightAware
06:10PM 39.8710 -119.5160 198° South 472 543 38,000  Level FlightAware
06:12PM 39.6370 -119.6120 198° South 476 548 38,000  Level FlightAware
06:14PM 39.4750 -119.6560 192° South 481 554 38,000  Level FlightAware
06:15PM 39.2250 -119.6550 180° South 480 552 38,000  Level FlightAware
06:16PM 39.0810 -119.6540 180° South 470 541 38,000  Level FlightAware
06:17PM 38.9540 -119.6530 180° South 479 551 38,000 540 Level FlightAware
06:18PM 38.8470 -119.6540 180° South 491 565 39,000 720 Climbing FlightAware
06:19PM 38.7600 -119.6530 179° South 491 565 39,000  Level FlightAware
06:20PM 38.6530 -119.6530 180° South 490 564 39,000  Level FlightAware
06:20PM 38.5610 -119.6530 180° South 491 565 39,000  Level FlightAware
06:21PM 38.4620 -119.6520 180° South 490 564 39,000  Level FlightAware
06:22PM 38.3900 -119.6510 179° South 490 564 39,000  Level FlightAware
06:22PM 38.3130 -119.6490 179° South 490 564 39,000  Level FlightAware
06:23PM 38.2120 -119.6510 181° South 488 562 39,000  Level FlightAware
06:24PM 38.0920 -119.6510 180° South 489 563 39,000  Level FlightAware
06:24PM 37.9890 -119.6510 180° South 487 560 39,000  Level FlightAware
06:25PM 37.8970 -119.6500 180° South 486 559 39,000  Level FlightAware
06:26PM 37.8080 -119.6500 180° South 484 557 39,000  Level FlightAware
06:27PM 37.7070 -119.6500 180° South 484 557 39,000  Level FlightAware
06:27PM 37.6150 -119.6490 180° South 484 557 39,000  Level FlightAware
06:28PM 37.5140 -119.6490 180° South 480 552 39,000  Level FlightAware
06:29PM 37.4380 -119.6490 180° South 471 542 39,000  Level FlightAware
06:29PM 37.3400 -119.6480 180° South 467 537 39,000  Level FlightAware
06:30PM 37.2570 -119.6480 180° South 467 537 39,000  Level FlightAware
06:31PM 37.1570 -119.6480 180° South 466 536 39,000  Level FlightAware
06:31PM 37.0590 -119.6470 180° South 464 534 39,000  Level FlightAware
06:32PM 36.9740 -119.6470 180° South 463 533 39,000  Level FlightAware
06:33PM 36.8790 -119.6470 180° South 464 534 39,000  Level FlightAware
06:34PM 36.7930 -119.6460 179° South 463 533 39,000  Level FlightAware
06:34PM 36.7060 -119.6460 180° South 462 532 39,000  Level FlightAware
06:35PM 36.6090 -119.6460 180° South 459 528 39,000  Level FlightAware
06:36PM 36.5320 -119.6460 180° South 458 527 39,000  Level FlightAware
06:36PM 36.4360 -119.6700 191° South 444 511 39,000  Level FlightAware
06:37PM 36.3650 -119.7220 211° Southwest 441 507 39,000  Level FlightAware
06:38PM 36.2950 -119.7730 210° Southwest 443 510 39,000  Level FlightAware
06:38PM 36.2090 -119.8240 206° Southwest 449 517 39,000  Level FlightAware
06:39PM 36.1260 -119.8220 179° South 459 528 39,000  Level FlightAware
06:40PM 36.0350 -119.8030 170° South 460 529 39,000  Level FlightAware
06:41PM 35.9490 -119.7840 170° South 459 528 39,000  Level FlightAware
06:41PM 35.8660 -119.7660 170° South 459 528 39,000  Level FlightAware
06:42PM 35.7710 -119.7470 171° South 459 528 39,000  Level FlightAware
06:43PM 35.6920 -119.7310 171° South 458 527 39,000 -540 Level FlightAware
06:43PM 35.6030 -119.7130 171° South 467 537 38,300 -1,080 Descending FlightAware
06:44PM 35.4890 -119.6890 170° South 481 554 37,300 -660 Descending FlightAware
06:45PM 35.4140 -119.6720 170° South 481 554 37,300 -1,200 Level FlightAware
06:46PM 35.2900 -119.6470 171° South 476 548 35,500 -2,580 Descending FlightAware
06:46PM 35.2060 -119.5990 155° Southeast 505 581 33,500 -1,920 Descending FlightAware
06:47PM 35.1310 -119.5360 146° Southeast 495 570 33,000 -1,140 Descending FlightAware
06:48PM 35.0340 -119.4880 158° South 489 563 31,900 -1,140 Descending FlightAware
06:48PM 34.9660 -119.4630 163° South 493 567 31,500 -300 Descending FlightAware
06:49PM 34.8730 -119.4280 163° South 493 567 31,500 -2,580 Level FlightAware
06:50PM 34.7700 -119.3900 163° South 450 518 27,700 -3,600 Descending FlightAware
06:51PM 34.7010 -119.3390 149° Southeast 423 487 26,700 -2,160 Descending FlightAware
06:51PM 34.6440 -119.2640 133° Southeast 407 468 24,700 -2,940 Descending FlightAware
06:52PM 34.5920 -119.1940 132° Southeast 397 457 22,600 -2,880 Descending FlightAware
06:53PM 34.5440 -119.1290 132° Southeast 385 443 20,900 -2,400 Descending FlightAware
06:53PM 34.4950 -119.0640 132° Southeast 372 428 19,200 -2,400 Descending FlightAware
06:54PM 34.4460 -118.9990 132° Southeast 362 417 17,500 -1,440 Descending FlightAware
06:55PM 34.4070 -118.9480 133° Southeast 361 415 17,300 -180 Descending FlightAware
06:55PM 34.3690 -118.8970 132° Southeast 361 415 17,300  Level FlightAware
06:56PM 34.3310 -118.8450 131° Southeast 361 415 17,300 -3,300 Level FlightAware
06:57PM 34.2490 -118.8490 182° South 298 343 13,200 -3,540 Descending FlightAware
06:57PM 34.2070 -118.8500 181° South 298 343 13,200  Level FlightAware
06:58PM 34.1480 -118.8510 181° South 298 343 13,200 -1,680 Level FlightAware
06:59PM 34.0820 -118.8620 188° South 298 343 10,900 -2,880 Descending FlightAware
06:59PM 34.0630 -118.8570 168° South 288 331 10,800 -540 Descending FlightAware
06:59PM 34.0410 -118.8380 144° Southeast 277 319 10,600 -720 Descending FlightAware
07:00PM 34.0290 -118.8020 112° Southeast 261 300 10,300 -780 Descending FlightAware
07:00PM 34.0260 -118.7620 95° East 252 290 9,900 -480 Descending FlightAware
07:01PM 34.0250 -118.7270 92° East 253 291 9,900  Level FlightAware
07:01PM 34.0230 -118.6880 94° East 252 290 9,900  Level FlightAware
07:02PM 34.0210 -118.6410 93° East 251 289 9,900 -300 Level FlightAware
07:02PM 34.0190 -118.6180 96° East 248 285 9,600 -1,020 Descending FlightAware
07:02PM 34.0170 -118.5750 93° East 250 288 9,000 -1,200 Descending FlightAware
07:03PM 34.0160 -118.5570 94° East 251 289 8,700 -1,080 Descending FlightAware
07:03PM 34.0140 -118.5210 94° East 245 282 8,300 -900 Descending FlightAware
07:04PM 34.0120 -118.4810 93° East 240 276 7,900 -1,080 Descending FlightAware
07:04PM 34.0130 -118.4270 89° East 240 276 7,100 -1,140 Descending FlightAware
07:05PM 34.0170 -118.3890 83° East 241 277 6,600 -1,500 Descending FlightAware
07:05PM 34.0200 -118.3500 85° East 240 276 5,600 -2,100 Descending FlightAware
07:06PM 34.0220 -118.3140 86° East 241 277 4,700 -1,560 Descending FlightAware
07:06PM 34.0260 -118.2760 83° East 240 276 4,200 -900 Descending FlightAware
07:06PM 34.0260 -118.2700 90° East 240 276 4,200 -1,080 Level FlightAware
07:07PM 34.0320 -118.2100 83° East 232 267 3,500 -1,020 Descending FlightAware
07:07PM 34.0340 -118.1810 85° East 222 255 3,200 -780 Descending FlightAware
07:08PM 34.0180 -118.1510 123° Southeast 207 238 2,800 -720 Descending FlightAware
07:08PM 34.0050 -118.1490 173° South 200 230 2,700 -720 Descending FlightAware
07:09PM 33.9830 -118.1670 214° Southwest 192 221 2,300 -720 Descending FlightAware
07:09PM 33.9770 -118.1830 246° West 189 217 2,100 -300 Descending FlightAware
07:09PM 33.9720 -118.2050 255° West 190 219 2,100  Level FlightAware
07:09PM 33.9700 -118.2220 262° West 189 217 2,100  Level FlightAware
07:10PM 33.9680 -118.2490 265° West 190 219 2,100  Level FlightAware
07:10PM 33.9660 -118.2650 261° West 189 217 2,100 -420 Level FlightAware
07:11PM 33.9630 -118.2960 263° West 189 217 1,700 -600 Descending FlightAware
07:11PM 33.9610 -118.3170 263° West 188 216 1,400 -900 Descending FlightAware
07:12PM 33.9580 -118.3480 263° West 148 170 900 -900 Descending FlightAware
07:12PM 33.9550 -118.3690 260° West 135 155 600 -780 Descending FlightAware
07:13PM 33.9530 -118.3920 264° West 135 155 200 -840 Descending FlightAware
07:13PM 33.9520 -118.4050 265° West 136 157 -480 Descending FlightAware
07:14PM 33.9500 -118.4220 262° West 136 157  Level FlightAware